Temp
17 17 17 17 17 17 16 16 15 13 13 12 11 10 10 9 9 10 9 9 9 9 9 8 7 7 8 9 9 8 7 7 2 0 1 0 0 1 -0 -0 -1 -2 -3
16 17 17 17 17 16 16 15 14 12 12 11 11 11 9 9 8 9 9 8 8 8 8 7 6 6 8 9 8 7 6 6 3 -0 -1 -1 1 0 0 -1 -2 -3 -3
14 15 15 16 15 15 14 13 12 12 11 11 10 10 9 9 8 8 8 8 7 7 6 7 5 7 7 7 7 6 5 4 5 2 -1 -1 -1 -1 -1 -2 -3 -3 -4
13 14 14 14 13 13 12 11 11 11 10 10 10 9 9 9 8 7 7 7 7 6 6 6 7 7 6 6 5 4 3 3 4 2 -1 -1 -2 -3 -1 -3 -4 -4 -5
9 10 11 11 12 11 11 11 11 10 10 9 9 9 8 8 7 7 7 7 6 5 6 6 6 7 7 7 4 2 3 2 2 0 -1 -2 -2 -4 -3 -4 -4 -5 -5
8 8 7 9 9 9 9 9 9 9 8 8 8 8 7 7 7 7 7 6 6 6 5 5 6 5 5 6 4 5 6 2 1 0 -1 -2 -2 -3 -3 -4 -5 -6 -5
7 7 6 6 7 8 8 7 6 6 7 7 6 6 6 6 6 7 7 6 6 6 6 5 4 4 4 4 4 4 3 4 5 2 -0 -1 -2 -2 -3 -4 -5 -4 -4
6 5 5 4 4 4 5 5 5 5 5 4 4 4 5 5 6 6 6 6 5 5 5 5 5 4 4 4 3 3 3 2 3 2 2 1 2 1 2 0 -4 -4 -4
5 5 4 4 4 3 3 3 4 4 4 4 4 4 4 4 5 5 5 5 5 4 4 4 4 4 4 3 3 2 2 1 2 2 2 3 3 3 2 -3 -5 -4 -6
5 4 4 4 4 3 2 2 2 3 3 4 4 4 5 3 4 4 5 4 3 3 3 3 3 3 3 3 2 2 1 0 0 0 0 1 1 0 0 0 -3 -4 -4
5 4 5 5 4 4 3 3 3 2 2 2 2 3 3 4 3 4 4 4 3 2 2 1 2 2 3 2 2 2 2 1 0 0 0 -1 -2 -2 -2 -3 -2 -2 -4
6 4 4 4 4 4 4 3 3 3 2 1 1 1 2 2 2 3 3 3 3 3 2 2 2 2 2 1 1 1 1 1 0 -1 -2 -2 -3 -4 -4 -4 -4 -3 -2
3 2 2 2 2 2 2 1 1 2 1 0 0 -0 -0 1 1 2 2 2 2 2 2 3 2 1 1 1 1 1 1 0 -1 -3 -3 -3 -3 -4 -4 -4 -4 -4 -4
2 1 1 1 1 1 1 1 0 -0 -0 -0 -0 -1 -1 -0 -0 0 0 0 0 1 1 1 0 0 -0 -0 -1 -0 -0 -0 -1 -2 -4 -4 -4 -5 -5 -5 -5 -5 -4
1 1 0 0 0 0 -0 0 0 0 1 -0 -0 -0 -1 -1 -0 0 0 -0 -0 -0 -0 -1 -2 -2 -2 -2 -3 -2 -3 -3 -3 -4 -4 -4 -5 -6 -6 -5 -5 -5 -5
1 0 0 -0 -1 -1 -1 -2 -1 -0 -0 -0 -0 -0 -1 -1 -1 -1 -1 -1 -1 -1 -2 -2 -3 -3 -3 -4 -4 -5 -4 -4 -4 -4 -5 -5 -6 -6 -7 -6 -5 -6 -6
0 -0 -1 -1 -1 -1 -2 -2 -3 -3 -2 -2 -2 -2 -2 -2 -2 -2 -2 -2 -2 -2 -2 -3 -3 -3 -4 -4 -4 -5 -5 -5 -4 -5 -5 -6 -6 -7 -7 -7 -7 -7 -8
-0 -1 -1 -1 -1 -1 -2 -3 -3 -4 -4 -3 -2 -2 -2 -2 -2 -2 -3 -3 -3 -3 -3 -3 -4 -4 -4 -5 -5 -5 -6 -6 -5 -6 -6 -6 -7 -7 -7 -8 -8 -8 -8
-1 -1 -0 -1 -2 -3 -3 -3 -3 -3 -3 -3 -3 -3 -3 -3 -3 -3 -3 -3 -3 -4 -4 -4 -3 -3 -4 -5 -5 -5 -5 -6 -6 -6 -6 -7 -7 -7 -8 -8 -8 -8 -8
-2 -1 -1 -2 -2 -3 -3 -3 -3 -3 -3 -3 -3 -3 -3 -3 -4 -4 -3 -3 -3 -3 -3 -4 -4 -4 -4 -4 -4 -5 -6 -6 -6 -6 -7 -7 -7 -7 -8 -8 -8 -9 -8
-1 -1 -1 -1 -1 -1 -1 -2 -2 -2 -2 -3 -2 -3 -3 -4 -4 -4 -4 -4 -4 -4 -4 -5 -5 -4 -4 -4 -4 -5 -6 -6 -6 -6 -7 -7 -7 -7 -7 -8 -8 -8 -9
-1 -0 -0 -0 -0 -0 -0 -0 -1 -1 -2 -2 -2 -3 -3 -4 -4 -4 -4 -4 -3 -4 -4 -4 -5 -4 -4 -4 -4 -5 -6 -6 -6 -6 -6 -7 -7 -7 -7 -8 -8 -8 -8
1 1 0 1 1 0 -0 -0 -1 -2 -2 -3 -3 -3 -4 -4 -5 -5 -4 -4 -4 -4 -4 -4 -5 -4 -4 -4 -4 -5 -5 -6 -5 -6 -6 -7 -7 -7 -7 -8 -8 -8 -8
1 1 1 0 1 0 0 0 0 -1 -1 -2 -2 -2 -3 -4 -4 -4 -5 -5 -5 -5 -5 -5 -5 -5 -4 -5 -5 -5 -5 -5 -5 -6 -6 -6 -7 -7 -7 -8 -8 -8 -8
1 0 1 0 -0 -0 -0 0 -1 -1 -1 -1 -1 -2 -2 -2 -3 -3 -4 -4 -5 -5 -5 -5 -5 -5 -5 -5 -5 -5 -5 -5 -6 -6 -6 -6 -7 -7 -7 -8 -8 -8 -8
-0 -0 -0 -0 -0 -1 -1 -1 -1 -1 -1 -1 -1 -1 -1 -1 -1 -2 -3 -4 -4 -5 -5 -6 -5 -5 -5 -5 -5 -5 -5 -5 -6 -6 -6 -6 -7 -7 -7 -8 -8 -8 -9
Height
614 615 619 621 624 629 632 637 640 646 652 661 667 680 686 689 691 697 705 714 724 733 741 748 755 763 772 780 788 792 797 805 821 831 839 845 856 860 863 866 870 876 880
611 612 611 613 617 620 623 625 629 637 642 653 659 663 674 683 680 686 696 706 714 721 727 738 746 757 766 775 779 789 794 800 817 824 832 838 845 852 856 863 867 873 879
612 610 608 607 610 610 614 617 622 627 633 643 650 656 662 668 672 681 689 699 706 711 722 732 742 747 757 765 770 779 786 793 804 809 820 830 837 844 852 859 863 870 876
608 612 609 608 609 608 609 613 617 623 630 637 641 650 658 663 669 680 684 696 702 707 717 721 733 738 747 755 762 772 779 789 796 802 813 821 829 837 843 849 859 867 873
610 609 607 604 608 608 608 610 613 619 627 630 637 643 651 657 667 675 682 691 698 705 714 722 726 735 741 747 754 764 774 782 788 797 807 816 824 831 833 840 851 861 868
606 608 612 604 607 607 607 613 612 616 621 626 630 635 641 648 660 665 677 686 694 701 709 716 722 732 739 744 750 755 760 771 782 790 799 805 812 817 827 832 843 854 864
607 607 611 612 610 605 610 612 617 621 621 622 626 632 643 648 658 661 672 681 691 699 705 711 719 727 733 739 748 754 762 765 770 778 787 794 805 806 815 827 835 842 845
610 607 608 610 609 607 615 615 618 621 623 625 634 641 648 651 654 662 669 679 688 696 704 710 718 725 730 736 744 751 758 765 772 777 779 786 794 799 805 811 822 836 841
609 608 605 606 609 614 622 621 622 621 627 633 634 645 649 654 660 668 672 679 687 696 705 712 718 724 730 735 740 750 757 761 772 777 780 785 791 797 798 810 818 824 838
609 607 606 608 611 620 624 625 627 630 630 634 637 647 652 660 667 673 676 681 689 698 705 711 716 726 730 735 738 747 753 757 766 774 779 782 789 793 794 799 805 813 821
607 611 606 611 616 622 625 631 631 632 635 638 646 654 658 662 668 675 679 685 691 699 706 709 715 725 730 736 742 746 750 756 763 769 772 776 784 789 795 799 803 805 811
602 611 611 614 618 624 626 633 634 638 643 653 653 661 668 669 673 677 680 682 690 697 704 711 716 721 725 733 743 745 750 755 760 765 770 771 777 785 793 799 804 806 808
605 612 614 618 620 626 632 634 641 642 649 656 658 666 669 672 674 678 681 684 690 698 703 708 718 722 725 730 736 746 752 754 755 762 764 769 773 778 786 793 801 805 809
605 614 621 621 625 629 637 641 646 651 651 652 657 663 668 673 678 681 686 690 694 697 701 706 713 719 725 730 734 739 746 750 753 753 758 765 770 776 781 788 791 798 803
607 614 622 625 627 632 643 647 651 652 654 655 661 665 670 675 678 682 687 692 698 700 704 705 712 716 721 726 730 734 741 746 750 750 752 758 764 770 776 780 786 792 795
607 615 621 626 630 638 645 651 656 658 658 659 665 672 674 676 677 681 690 694 698 702 702 704 711 713 718 722 726 732 735 738 746 749 750 753 756 764 770 776 779 785 791
607 616 623 628 634 640 646 649 658 663 661 664 666 674 680 681 680 684 689 694 699 701 699 704 708 710 715 720 722 727 732 736 739 745 748 750 753 758 763 770 777 781 786
615 623 628 635 640 644 644 653 658 657 662 667 673 676 679 678 676 682 686 690 699 703 700 703 706 708 711 716 720 723 728 734 738 740 745 746 748 754 761 766 771 777 782
618 626 632 636 638 643 649 655 659 662 665 670 675 677 675 674 675 681 688 695 699 702 700 700 703 706 710 713 716 720 725 727 731 736 740 742 745 750 756 761 766 772 777
622 628 632 638 644 651 656 661 664 665 667 669 669 671 674 680 686 691 697 699 698 698 700 703 705 706 707 711 713 716 719 723 728 731 735 738 740 746 750 755 761 766 772
629 635 640 644 649 654 656 660 664 667 670 671 676 681 685 688 691 693 696 698 698 699 700 701 701 703 705 706 709 712 715 718 723 727 730 734 737 742 745 751 756 762 768
636 642 647 651 654 658 661 665 667 670 673 676 680 683 687 689 690 691 692 693 693 694 695 696 697 698 700 702 705 708 711 714 717 722 725 729 733 737 741 746 752 758 763
642 646 650 654 657 661 663 667 668 672 675 676 677 680 682 684 686 685 685 688 689 690 690 692 693 694 697 699 702 704 707 709 711 715 719 723 728 732 737 742 747 753 758
647 649 652 655 658 661 664 667 668 670 671 673 673 673 676 678 680 680 681 683 683 686 686 688 688 689 693 696 697 699 702 705 707 710 714 718 723 728 733 738 742 747 752
648 651 653 656 658 659 663 666 667 667 667 669 671 672 674 675 676 677 678 679 679 681 681 682 684 686 688 690 692 693 696 700 703 706 710 714 719 723 728 732 737 742 747
650 652 653 655 657 661 663 664 662 664 666 668 669 670 670 670 671 673 673 674 675 675 676 678 679 680 682 684 687 689 692 696 699 703 707 710 715 720 724 728 733 738 743
Wind_Speed
22 26 30 33 36 35 37 37 37 35 36 37 41 38 39 42 46 50 42 41 41 39 37 40 38 40 42 37 32 33 24 18 13 7 19 22 31 28 26 23 21 20 17
19 24 28 30 33 33 35 35 41 38 42 43 46 49 43 41 39 44 43 39 40 40 45 41 38 40 43 38 35 29 26 25 21 22 23 28 32 33 32 27 23 21 20
18 18 17 25 27 32 38 36 39 41 43 44 41 40 41 44 36 38 39 41 41 43 39 40 40 44 43 42 38 34 35 36 33 25 21 28 26 37 34 27 26 25 22
15 19 17 19 23 30 30 35 36 39 39 40 40 39 40 41 42 35 36 39 40 39 42 43 45 47 45 44 39 39 37 35 32 31 22 28 30 35 37 34 27 26 23
8 9 12 13 17 20 27 38 39 36 34 35 35 37 37 37 38 39 39 37 36 34 38 39 41 44 45 46 40 37 37 32 30 27 22 25 25 31 35 31 28 29 27
4 4 5 6 10 14 19 21 28 31 33 37 38 40 39 36 43 42 40 38 36 37 36 35 36 37 39 40 41 46 50 40 29 25 23 26 30 33 31 36 31 28 13
4 7 6 6 10 13 14 17 12 18 31 32 29 33 31 35 39 40 39 37 36 34 33 32 31 33 37 41 40 39 42 43 41 42 33 33 31 39 39 34 34 31 19
6 8 7 8 8 11 16 18 22 22 19 19 23 23 31 28 34 37 34 31 30 28 28 29 31 31 34 36 36 35 37 36 36 38 43 43 41 41 40 45 42 30 22
8 10 13 14 14 10 9 16 18 23 25 23 22 19 18 21 25 28 27 24 23 22 21 22 24 27 28 29 32 31 29 32 32 36 36 35 38 31 35 36 36 35 14
6 12 15 17 18 15 11 12 13 18 21 21 22 17 16 21 21 23 21 21 21 20 17 17 16 21 24 26 31 32 29 29 32 32 25 22 22 28 31 42 43 36 22
15 14 18 17 19 18 16 12 15 18 18 20 19 16 19 21 22 19 15 16 18 17 17 17 18 17 18 22 29 32 33 34 31 30 28 26 24 25 33 39 39 40 33
24 19 20 21 20 20 22 18 18 21 20 17 19 16 13 14 16 16 14 12 13 16 17 17 19 18 19 18 25 27 30 29 30 29 27 26 28 30 30 30 32 31 32
22 20 23 23 23 21 21 23 21 22 22 16 16 15 14 13 15 15 14 13 12 14 15 14 15 16 18 19 25 27 25 25 28 26 25 28 34 35 36 34 31 29 23
24 22 22 24 24 22 19 18 17 14 15 15 15 14 13 11 10 11 13 13 14 14 14 14 14 15 20 23 24 25 26 29 32 30 27 27 33 33 33 35 32 29 25
24 22 20 20 23 24 17 15 16 12 13 16 13 13 12 10 10 10 13 15 15 16 15 14 14 17 20 21 23 28 29 28 28 26 32 32 31 33 33 36 34 33 27
22 19 19 21 22 22 22 21 16 15 14 13 12 11 9 7 9 9 10 13 16 18 16 14 15 16 18 20 25 25 25 26 26 29 30 32 31 31 31 32 34 29 25
22 20 21 21 20 18 18 16 13 17 18 16 15 13 11 12 11 10 9 9 10 13 12 15 16 16 18 21 26 24 22 26 28 30 30 31 31 29 33 28 27 25 22
26 22 21 20 21 18 18 14 13 12 9 11 10 7 6 6 7 5 6 7 12 15 15 16 17 19 22 23 25 24 23 25 27 27 28 29 29 29 27 25 26 24 22
25 22 21 19 18 17 16 15 14 14 14 11 7 6 7 7 6 3 2 8 11 14 13 16 19 21 22 24 25 26 26 27 27 28 28 29 30 30 26 26 27 26 25
26 25 25 23 21 19 17 15 14 13 11 8 6 5 3 1 3 8 11 15 14 15 17 19 23 24 24 25 25 26 25 25 26 27 27 29 30 30 28 28 28 28 26
26 23 21 19 17 14 13 11 9 8 5 5 7 8 9 14 14 14 15 16 18 20 21 17 19 24 23 23 24 24 24 25 27 27 27 28 30 27 28 28 27 27 26
23 22 19 18 15 13 11 10 9 8 8 8 10 12 15 15 13 15 17 18 18 18 18 22 21 22 23 23 25 25 25 25 27 28 28 28 29 27 27 27 27 27 27
20 18 17 15 13 10 8 8 8 9 10 9 9 11 12 15 15 14 14 16 16 17 16 17 19 21 22 23 24 25 27 28 29 29 29 28 28 27 28 27 28 27 27
13 13 13 12 11 9 7 6 6 6 5 4 5 6 9 12 17 15 14 15 16 18 17 19 19 20 22 23 23 22 23 24 26 28 30 30 29 30 29 28 29 29 29
10 10 9 8 7 6 6 7 5 4 4 5 6 8 10 11 14 15 15 15 13 15 17 18 18 20 21 20 20 20 20 22 23 25 30 31 30 31 30 29 30 29 28
8 7 6 5 4 4 4 4 3 5 8 10 12 12 13 12 12 13 15 16 17 16 17 18 19 20 19 19 19 17 17 19 21 23 26 30 30 30 29 30 31 29 30
Wind_Direction
269 231 226 224 220 216 214 212 204 194 191 190 185 189 194 193 190 190 192 191 193 190 190 188 186 188 188 190 185 185 172 154 129 127 170 177 186 190 193 196 187 191 186
296 250 225 220 216 210 209 204 194 187 189 189 189 192 193 195 196 191 189 189 187 185 186 183 181 183 187 185 179 184 195 192 173 155 159 167 187 197 202 190 184 195 193
286 260 232 216 211 201 201 195 189 187 186 189 191 188 188 189 200 196 189 186 186 187 185 184 181 181 181 186 197 198 193 187 191 167 157 176 181 189 191 190 187 196 195
285 260 236 222 213 199 192 189 185 188 188 189 187 188 191 190 194 192 184 185 184 184 187 188 191 191 190 193 190 186 177 173 178 163 160 167 171 179 188 177 180 195 185
292 244 215 199 206 199 193 194 195 191 192 185 182 185 187 184 184 184 185 185 182 183 190 194 203 204 204 206 186 177 174 173 168 160 156 163 167 169 178 178 173 181 185
276 270 247 171 183 188 193 197 191 187 178 179 185 180 184 183 192 191 187 182 187 189 190 199 206 207 206 208 193 196 198 178 172 169 171 175 182 180 176 173 169 166 180
190 179 214 200 182 186 197 183 158 157 173 174 175 175 177 183 188 191 197 193 192 195 195 194 196 199 200 197 195 196 195 198 206 192 182 184 180 180 175 172 179 184 182
180 140 134 133 124 137 161 160 159 161 151 141 153 162 174 182 181 188 188 184 185 188 193 196 199 198 202 198 193 192 195 194 201 199 200 197 204 193 201 202 189 179 175
137 117 116 125 115 109 130 147 152 149 156 160 150 160 160 160 174 181 177 167 172 180 191 198 202 203 206 203 194 191 193 196 203 205 209 216 209 212 203 181 172 168 170
148 140 131 125 123 121 114 114 127 142 132 136 130 135 136 156 175 181 170 163 162 172 182 192 209 213 205 208 197 188 182 191 197 200 203 207 215 209 209 206 188 177 170
144 144 130 127 125 126 118 115 115 110 109 111 117 127 147 158 164 175 171 164 168 169 179 180 193 209 210 214 210 203 199 198 202 200 195 191 191 196 204 201 207 190 181
152 155 138 136 132 132 127 126 121 123 119 124 120 120 134 152 163 176 175 173 183 180 187 197 200 203 201 209 219 217 210 204 197 194 190 181 182 188 193 198 203 197 198
138 134 135 137 133 135 133 132 132 135 132 130 128 133 142 150 158 174 182 182 190 195 201 206 216 212 208 212 214 213 211 204 195 183 178 183 189 189 191 194 195 200 199
129 129 132 127 127 128 131 132 131 133 132 136 137 136 147 151 159 168 186 196 199 198 201 206 213 212 212 213 209 215 218 214 205 191 181 182 190 190 183 190 183 186 181
129 128 126 122 116 113 112 123 126 120 137 131 133 141 141 155 175 183 189 199 206 205 197 191 192 191 186 189 187 197 203 206 194 184 183 186 182 182 184 189 188 183 176
121 122 122 117 109 109 106 92 98 106 109 113 119 138 125 135 144 158 181 199 209 210 193 179 179 178 178 176 181 191 199 201 197 198 192 188 178 177 179 184 190 182 178
115 118 117 116 117 120 119 116 113 100 99 99 104 110 120 114 117 133 151 167 201 205 192 186 186 181 182 185 194 195 195 201 204 200 195 189 184 178 176 176 177 176 170
113 117 115 120 123 119 113 120 123 109 98 86 81 79 79 89 89 108 136 154 179 203 200 196 196 193 193 190 202 199 201 202 202 197 193 187 181 177 173 174 174 175 171
107 110 119 114 116 114 118 115 109 99 90 89 85 67 52 52 51 31 186 209 198 208 217 222 226 214 207 205 211 206 208 203 199 196 195 189 184 181 179 179 179 180 172
111 114 112 110 110 116 122 118 113 100 97 90 69 47 29 93 197 211 220 224 228 226 228 233 232 225 217 213 216 214 205 202 197 195 194 192 188 186 180 179 180 179 181
114 115 114 115 116 121 118 109 113 123 146 166 201 201 201 208 213 218 222 229 230 231 226 225 226 228 224 218 218 214 208 203 201 198 196 193 190 186 187 185 184 183 180
121 126 131 133 130 132 138 149 160 179 188 198 206 208 208 209 220 225 229 232 236 239 238 236 234 228 228 225 223 218 209 203 203 201 199 195 193 191 187 185 182 180 177
137 140 142 146 148 148 153 168 173 187 196 200 196 207 212 212 224 227 230 238 241 238 236 238 236 236 235 233 231 228 219 212 214 211 202 197 194 190 187 183 180 177 177
153 157 159 158 162 168 177 194 211 224 236 246 239 247 246 247 234 241 244 242 235 235 236 237 236 234 235 233 231 230 232 231 224 217 211 201 195 191 187 184 183 184 183
156 157 166 168 171 183 206 221 231 256 274 297 289 268 269 267 261 254 249 246 247 234 234 238 236 235 236 236 236 233 234 232 229 222 212 207 198 193 190 188 188 187 184
141 140 135 134 150 189 209 245 271 284 278 270 267 266 266 268 269 265 259 253 240 241 236 236 237 236 236 237 238 237 235 233 229 224 215 207 200 193 193 192 192 187 188